Stations météo

réclame
Mon MeteoGroup
Yecla, Espagne (8356): Température de l'air & dewpoint: 12.01.2019 12:00:00 - 18.01.2019 12:00:00 (CET)Yecla, Espagne (8356): Vitesse du vent & gusts: 12.01.2019 12:00:00 - 18.01.2019 12:00:00 (CET)Yecla, Espagne (8356): Direction du vent: 12.01.2019 12:00:00 - 18.01.2019 12:00:00 (CET)Yecla, Espagne (8356): reduced air pressure: 12.01.2019 12:00:00 - 18.01.2019 12:00:00 (CET)Yecla, Espagne (8356): visibility: 12.01.2019 12:00:00 - 18.01.2019 12:00:00 (CET)Yecla, Espagne (8356): Ensoleillement: 12.01.2019 12:00:00 - 18.01.2019 12:00:00 (CET)Yecla, Espagne (8356): Quantités de précipitations: 12.01.2019 12:00:00 - 18.01.2019 12:00:00 (CET)
Date & Time tt [°C] td [°C] ff [km/h] ff [knt] fx [km/h] fx [knt] dd ppp [hPa] vv [km] sd [min] rr [mm]
18.01.2019 12:00:00 9,5 -0,5 4 2 12 7 S 1019,6 16 60 0,0
18.01.2019 11:00:00 6,7 -0,5 3 1 7 4 ESE 1020,5 18 60 0,0
18.01.2019 10:00:00 2,3 0,0 3 2 5 3 SE 1021,6 12 60 0,0
18.01.2019 09:00:00 -2,8 -4,2 2 1 4 2 WSW 1023,0 8 10 0,0
18.01.2019 08:00:00 -2,6 -4,2 4 2 6 3 WSW 1022,9 11 0 0,0
18.01.2019 07:00:00 -2,0 -3,9 1 1 10 6 N 1022,1 11 0 -
18.01.2019 06:00:00 -1,9 -4,2 3 2 7 4 W 1021,7 10 0 0,0
18.01.2019 05:00:00 -0,2 -3,3 6 3 9 5 WSW 1021,4 14 0 0,0
18.01.2019 04:00:00 3,9 -1,2 6 3 28 15 SSE 1020,4 19 0 0,0
18.01.2019 03:00:00 0,2 -1,2 4 2 10 5 S 1021,4 9 0 0,0
18.01.2019 02:00:00 -0,3 -2,5 2 1 7 4 SSW 1021,4 5 0 0,0
18.01.2019 01:00:00 1,2 -1,4 1 1 9 5 N 1021,4 8 0 -
18.01.2019 00:00:00 2,5 -1,2 6 3 7 4 SW 1021,4 9 0 0,0
17.01.2019 23:00:00 5,2 0,2 6 3 37 20 SSE 1020,4 11 0 0,0
17.01.2019 22:00:00 6,1 0,9 29 15 39 21 NNW 1019,5 13 0 0,0
17.01.2019 21:00:00 6,6 0,9 14 8 33 18 NW 1019,0 13 0 0,0
17.01.2019 20:00:00 7,4 0,6 10 5 22 12 N 1018,3 16 0 0,0
17.01.2019 19:00:00 7,3 0,2 3 2 15 8 S 1017,8 15 0 -
17.01.2019 18:00:00 8,0 0,2 7 4 15 8 WSW 1017,1 16 0 0,0
17.01.2019 17:00:00 8,7 0,2 7 4 28 15 NNE 1016,8 17 0 0,0
17.01.2019 16:00:00 9,3 -0,3 15 8 31 17 NNE 1016,5 18 57 0,0
17.01.2019 15:00:00 9,8 -0,5 10 5 24 13 NE 1016,3 20 60 0,0
17.01.2019 14:00:00 9,5 -0,3 9 5 23 12 ENE 1016,7 20 19 0,0
17.01.2019 13:00:00 9,6 0,0 6 4 28 15 ENE 1017,4 20 60 -
17.01.2019 12:00:00 8,4 0,2 11 6 29 16 ENE 1018,5 16 59 0,0
17.01.2019 11:00:00 6,8 0,0 19 11 45 25 NW 1018,8 20 37 0,0
17.01.2019 10:00:00 6,4 0,0 22 12 46 25 NW 1018,3 19 41 0,0
17.01.2019 09:00:00 6,1 0,2 19 11 45 24 WNW 1017,9 20 0 0,0
17.01.2019 08:00:00 6,0 0,4 20 11 42 23 NW 1017,7 18 0 0,0
17.01.2019 07:00:00 5,9 0,4 17 9 40 22 WNW 1017,4 20 0 -
17.01.2019 06:00:00 5,9 0,6 20 11 50 27 NW 1017,3 14 0 0,0
17.01.2019 05:00:00 6,0 0,4 27 15 47 26 NW 1017,6 20 0 0,0
17.01.2019 04:00:00 5,9 0,2 25 14 48 26 NNW 1018,0 20 0 0,0
17.01.2019 03:00:00 6,4 0,2 27 15 48 26 NNW 1017,9 20 0 0,0
17.01.2019 02:00:00 6,5 0,9 28 15 49 27 NW 1018,0 20 0 0,0
17.01.2019 01:00:00 7,0 0,9 30 16 46 25 NNW 1018,5 20 0 -
17.01.2019 00:00:00 6,1 1,1 9 5 28 15 SW 1019,2 20 0 0,0
16.01.2019 23:00:00 7,6 1,5 11 6 36 20 N 1018,9 20 0 0,0
16.01.2019 22:00:00 7,9 1,5 25 13 45 24 NW 1018,4 20 0 0,0
16.01.2019 21:00:00 8,3 1,9 34 18 47 26 NNW 1017,8 20 0 0,0
16.01.2019 20:00:00 8,6 2,1 34 18 46 25 NNW 1017,6 20 0 0,0
16.01.2019 19:00:00 10,3 2,5 23 12 33 18 NNW 1017,0 20 0 -
16.01.2019 18:00:00 11,7 1,7 7 4 22 12 N 1016,5 20 47 0,0
16.01.2019 17:00:00 13,9 0,4 7 4 27 15 NNW 1016,0 20 60 0,0
16.01.2019 16:00:00 15,1 0,2 6 4 18 10 W 1015,8 20 60 0,0
16.01.2019 15:00:00 15,2 0,9 6 3 15 8 S 1015,8 20 60 0,0
16.01.2019 14:00:00 15,1 2,7 6 3 16 9 SSE 1016,4 20 60 0,0
16.01.2019 13:00:00 13,7 2,3 4 2 19 11 SW 1017,8 20 60 -
16.01.2019 12:00:00 11,7 2,5 6 4 16 9 SSW 1019,3 20 60 0,0
16.01.2019 11:00:00 6,6 5,8 4 2 9 5 ESE 1021,1 16 60 0,0
16.01.2019 10:00:00 2,5 1,7 4 2 6 3 W 1022,3 1,5 19 0,0
16.01.2019 09:00:00 1,2 0,4 1 1 11 6 NW 1022,4 0,1 0 0,0
16.01.2019 08:00:00 1,3 0,4 4 2 9 5 W 1022,3 0,2 0 0,0
16.01.2019 07:00:00 1,4 0,6 8 4 12 6 W 1022,1 0,8 0 -
16.01.2019 06:00:00 3,0 1,9 6 3 8 4 W 1021,8 0,2 0 0,0
16.01.2019 05:00:00 2,9 1,9 2 1 5 3 W 1022,1 0,2 0 0,0
16.01.2019 04:00:00 2,5 1,5 3 1 5 3 WSW 1022,8 0,1 0 0,0
16.01.2019 03:00:00 1,1 0,2 3 2 6 3 ENE 1023,6 2,8 0 0,0
16.01.2019 02:00:00 1,6 0,2 3 2 16 8 NNW 1023,4 2,8 0 0,0
16.01.2019 01:00:00 0,4 -1,0 6 3 10 5 W 1024,2 4,9 0 -
16.01.2019 00:00:00 0,9 -0,5 2 1 6 4 WNW 1024,4 4,7 0 0,0
15.01.2019 23:00:00 2,3 0,6 1 1 7 4 NNW 1024,1 9 0 0,0
15.01.2019 22:00:00 3,1 0,6 2 1 10 5 W 1023,6 9 0 0,0
15.01.2019 21:00:00 4,9 1,7 8 4 15 8 WSW 1023,0 16 0 0,0
15.01.2019 20:00:00 7,2 3,0 14 8 17 9 WSW 1022,0 20 0 0,0
15.01.2019 19:00:00 9,3 3,4 9 5 16 9 WSW 1021,2 20 0 -
15.01.2019 18:00:00 11,7 3,4 8 4 13 7 SSW 1020,2 20 46 0,0
15.01.2019 17:00:00 15,1 1,7 6 4 16 8 S 1019,2 20 60 0,0
15.01.2019 16:00:00 15,9 0,0 8 4 18 10 S 1019,1 5 60 0,0
15.01.2019 15:00:00 15,7 0,0 8 4 15 8 SE 1019,3 20 60 0,0
15.01.2019 14:00:00 15,4 0,0 6 3 14 7 S 1019,9 20 60 0,0
15.01.2019 13:00:00 14,0 0,6 8 5 14 7 S 1021,2 20 60 -
15.01.2019 12:00:00 13,7 0,6 2 1 5 3 NNW 1021,9 20 60 0,0
15.01.2019 11:00:00 9,1 -0,3 2 1 6 3 E 1023,4 14 60 0,0
15.01.2019 10:00:00 5,1 0,2 1 1 4 2 ESE 1023,9 20 60 0,0
15.01.2019 09:00:00 -0,9 -2,7 2 1 5 3 NNW 1025,1 19 11 0,0
15.01.2019 08:00:00 -1,6 -3,6 4 2 6 3 WSW 1025,0 17 0 0,0
15.01.2019 07:00:00 -1,1 -3,0 2 1 9 5 WNW 1024,6 20 0 -
15.01.2019 06:00:00 -1,8 -3,9 2 1 6 3 W 1024,4 20 0 0,0
15.01.2019 05:00:00 -1,0 -3,3 2 1 7 4 WSW 1024,4 20 0 0,0
15.01.2019 04:00:00 -0,5 -3,3 5 3 7 4 W 1024,4 20 0 0,0
15.01.2019 03:00:00 -0,3 -3,3 5 3 8 5 WSW 1024,4 20 0 0,0
15.01.2019 02:00:00 1,2 -3,0 2 1 10 5 N 1023,9 20 0 0,0
15.01.2019 01:00:00 1,9 -2,7 7 4 10 6 WSW 1023,6 20 0 -
15.01.2019 00:00:00 3,7 -2,2 4 2 9 5 W 1023,2 20 0 0,0
14.01.2019 23:00:00 6,0 -2,0 2 1 12 6 SSW 1022,2 20 0 0,0
14.01.2019 22:00:00 7,6 -1,4 6 4 18 10 SSW 1021,6 20 0 0,0
14.01.2019 21:00:00 10,8 -1,2 12 6 41 22 ESE 1020,4 20 0 0,0
14.01.2019 20:00:00 12,8 -0,7 21 11 39 21 NW 1019,6 20 0 0,0
14.01.2019 19:00:00 13,9 -1,0 14 8 34 18 WNW 1018,8 20 0 -
14.01.2019 18:00:00 15,4 -1,2 11 6 25 14 WNW 1017,9 20 44 0,0
14.01.2019 17:00:00 17,5 -3,3 9 5 24 13 NNE 1017,1 20 60 0,0
14.01.2019 16:00:00 18,3 -2,2 4 2 36 20 SE 1017,0 20 60 0,0
14.01.2019 15:00:00 18,1 -2,2 8 5 28 15 NW 1017,2 20 60 0,0
14.01.2019 14:00:00 17,0 -2,2 8 4 21 11 ENE 1017,9 20 60 0,0
14.01.2019 13:00:00 - - - - - - - - - - -
14.01.2019 12:00:00 14,7 -0,7 7 4 26 14 SSW 1020,2 20 60 0,0
14.01.2019 11:00:00 12,1 -0,7 7 4 42 23 SW 1021,3 20 60 0,0
14.01.2019 10:00:00 10,0 -0,7 18 10 44 24 W 1021,6 20 60 0,0
14.01.2019 09:00:00 8,1 -0,7 10 5 52 28 SW 1022,1 20 11 0,0
14.01.2019 08:00:00 5,6 -1,7 13 7 29 15 SSE 1023,0 20 0 0,0
14.01.2019 07:00:00 7,1 -2,0 10 6 33 18 WSW 1022,5 20 0 -
14.01.2019 06:00:00 6,6 -1,4 12 7 39 21 SE 1022,7 20 0 0,0
14.01.2019 05:00:00 6,6 -1,2 9 5 34 18 NE 1023,3 20 0 0,0
14.01.2019 04:00:00 6,3 -2,2 10 6 35 19 S 1024,1 20 0 0,0
14.01.2019 03:00:00 7,4 -2,2 10 5 35 19 NNW 1023,9 20 0 0,0
14.01.2019 02:00:00 7,1 -2,7 8 4 27 14 N 1024,0 20 0 0,0
14.01.2019 01:00:00 8,7 -3,0 16 9 41 22 W 1023,8 20 0 -
14.01.2019 00:00:00 9,1 -3,6 29 16 51 28 NW 1024,2 20 0 0,0
13.01.2019 23:00:00 9,6 -4,2 21 11 51 27 NW 1024,3 20 0 0,0
13.01.2019 22:00:00 10,0 -4,2 26 14 49 26 NW 1024,3 20 0 0,0
13.01.2019 21:00:00 10,4 -4,2 21 11 48 26 WNW 1024,1 20 0 0,0
13.01.2019 20:00:00 10,7 -3,9 22 12 49 27 NW 1024,1 20 0 0,0
13.01.2019 19:00:00 10,6 -3,3 19 10 40 22 WNW 1024,5 20 0 -
13.01.2019 18:00:00 11,2 -2,7 9 5 26 14 W 1023,9 20 43 0,0
13.01.2019 17:00:00 13,3 -4,5 14 8 30 16 W 1023,1 20 60 0,0
13.01.2019 16:00:00 14,1 -4,2 11 6 27 15 W 1023,0 20 60 0,0
13.01.2019 15:00:00 13,3 -4,8 10 5 32 18 NE 1023,6 14 60 0,0
13.01.2019 14:00:00 13,1 -5,1 6 3 19 10 NE 1024,3 20 60 0,0
13.01.2019 13:00:00 12,3 -4,5 11 6 25 14 WSW 1025,2 20 60 -
13.01.2019 12:00:00 10,1 -3,3 13 7 19 11 WSW 1027,2 20 60 0,0
13.01.2019 11:00:00 7,7 -2,7 7 4 12 6 ESE 1028,1 20 60 0,0
13.01.2019 10:00:00 3,5 -2,2 8 4 11 6 SE 1029,2 20 60 0,0
13.01.2019 09:00:00 -2,5 -4,5 4 2 7 4 SW 1030,8 20 11 0,0
13.01.2019 08:00:00 -2,0 -5,1 2 1 10 5 N 1030,2 20 0 0,0
13.01.2019 07:00:00 -1,4 -4,8 4 2 10 5 WSW 1029,8 20 0 -
13.01.2019 06:00:00 -0,2 -4,2 5 3 14 8 NE 1029,3 20 0 0,0
13.01.2019 05:00:00 0,6 -4,2 6 3 22 12 ENE 1029,7 20 0 0,0
13.01.2019 04:00:00 -1,9 -5,7 3 2 8 4 WSW 1030,7 20 0 0,0
13.01.2019 03:00:00 -1,5 -6,7 3 1 10 5 WSW 1030,3 20 0 0,0
13.01.2019 02:00:00 0,3 -5,1 4 2 10 5 E 1030,1 20 0 0,0
13.01.2019 01:00:00 -1,9 -6,7 7 4 11 6 WSW 1031,6 20 0 -
13.01.2019 00:00:00 -1,5 -7,1 2 1 9 5 S 1031,9 20 0 0,0
12.01.2019 23:00:00 -1,6 -7,8 3 1 10 5 NNW 1031,7 20 0 0,0
12.01.2019 22:00:00 -0,6 -8,6 2 1 10 6 WSW 1031,5 20 0 0,0
12.01.2019 21:00:00 2,4 -7,8 2 1 14 8 N 1030,7 20 0 0,0
12.01.2019 20:00:00 3,6 -7,5 3 1 18 10 SSW 1030,0 17 0 0,0
12.01.2019 19:00:00 4,6 -7,1 14 7 16 9 WSW 1029,3 3,9 0 -
12.01.2019 18:00:00 7,9 -7,8 8 5 15 8 WSW 1027,9 11 43 0,0
12.01.2019 17:00:00 11,6 -7,8 10 5 17 9 SW 1026,5 20 60 0,0
12.01.2019 16:00:00 12,3 -8,2 10 6 19 10 SW 1026,3 20 60 0,0
12.01.2019 15:00:00 12,2 -7,8 11 6 19 10 SW 1026,5 20 60 0,0
12.01.2019 14:00:00 12,0 -7,8 7 4 16 8 S 1027,2 20 60 0,0
12.01.2019 13:00:00 10,5 -7,8 3 2 11 6 E 1028,5 20 60 -
12.01.2019 12:00:00 9,3 -7,8 3 2 7 4 SE 1029,6 20 60 0,0

tt = Température de l'air
td = dewpoint
ff = Vitesse du vent
fx = gusts
dd = Direction du vent
ppp = reduced air pressure
vv = visibility
sd = Ensoleillement
rr = Quantités de précipitations

stations d'obs. à proximité